Showing default

RAY 1.0, 62627

Orbit data source: Space-Track

RAY 1.0, 62627 is a payload satellite owned by Inversion Space (US) in SSO that was launched on Tue, 14 Jan 2025 UTC via an FALCON 9 launch vehicle from the Air Force Western Test Range (AFWTR). Payload-class satellites include a variety of spacecraft equipped with specific instruments for various scientific and technological missions. These include communications satellites like Starlink; space stations such as the ISS; scientific satellites like the Hubble; Earth observation satellites from companies like Planet Labs, Umbra, and HawkEye 360; GPS; miniature CubeSats for education and research; and military/defense satellites.

Loading next visibility...
Identifier
62627, 2025-009U
Orbit
SSO
Country
Flag of USUS
Related business
Manufacturer
Inversion Space
Mission
Operational Commercial Technology
Bus & Motor
RAY, Unknown motor
Mass
63 kg wet, 32 kg dry
Launch date (UTC)
2025-01-14 (1 year ago)
Launch vehicle
FALCON 9
Launch site
Air Force Western Test Range (AFWTR)
Object type
Payload
Rocket body
Debris
Shape & HBR
Box + Cone, 0.6 m
Radar Cross Section
0.875 m², Medium (>0.1 m² and < 1m²)

Expand to show TLE details & history
Last TLE update: 8 hours ago

TLE from 8 hours ago
0 RAY 1.0
1 62627U 25009U   26037.96372521  .00005558  00000-0  26245-3 0  9997
2 62627  97.4088 118.6726 0009274  21.2271 338.9347 15.19796167 58898
Epoch: 2026-02-06T23:07Z
TLE epoch observation values (Epoch: 2026-02-06T23:07:45.858Z)
Latitude
-0°
Longitude
-5.36253°
Altitude
503.587 km
Speed
7.616 km/s
True Right ascension
07h 54m 41s
True Declination
0° 00' 00"
Sunlit
Object was in full shadow at epoch
Visualization orbit readout
Latitude
Unknown
Longitude
Unknown
Altitude
Unknown
Speed
Unknown
Apparent Right ascension
Unknown
Apparent Declination
Unknown
Sunlit
N/A
Visualization observer readout
Local Sidereal Time
09:35:07
Azimuth
Unknown
Elevation
Unknown
Doppler factor
Unknown
Orbital elements
Apogee altitude
509.804 km
Perigee altitude
497.04 km
Semi-major axis
6,881.559 km
Eccentricity
0.00093
Inclination
97.4088°
RAAN
118.6726°
Arg. of periapsis
21.2271°
True anomaly
338.89646°
Mean anomaly
338.9347°
Eccentric anomaly
338.91558°
Mean motion
3.80201 °/min
Orbital period
94.69 mins
BSTAR
0.00026245
Loading maneuver chart data...
Computing Atmospheric mass density...
Loading historical data...
Loading historical data...
Loading historical data...
Loading historical data...
Loading historical data...
Loading historical data...
Loading historical data...

Documentation

Showing up to 5 results
|